Location: Unspecified
(0.0000°N, 0.0000°E)
Time: 21:48:45
(UTC+02:00)

Amateur Radio Satellites - All Passes

Search period start: 28 April 2015 21:18
Search period end: 29 April 2015 21:18
Location: Unspecified, 0.0000°N, 0.0000°E

Satellite Date Start Highest point End Downlink Frequencies (MHz)
Time Altitude Azimuth
O/OREOS (USA 219) 28 Apr 21:22:22 21:25:45 21° 106° (ESE) 21:29:18 437.305
JUGNU 28 Apr 21:41:33 21:47:28 60° 339° (NNW) 21:53:22 437.505
SEEDS 28 Apr 21:42:29 21:44:48 15° 80° (E) 21:47:22 437.485
STRAND 1 28 Apr 21:46:37 21:49:32 15° 281° (W) 21:52:08 437.568
AAUSAT CUBESAT 2 28 Apr 21:52:34 21:54:17 13° 81° (E) 21:56:19 437.432
ISS 28 Apr 21:54:32 21:57:34 38° 234° (SW) 22:00:35 145.825
CANX-2 28 Apr 21:54:46 21:58:38 33° 79° (E) 22:02:32 2200.000
SRMSAT 28 Apr 21:56:26 22:02:24 62° 159° (SSE) 22:08:21 437.500
SO-50 28 Apr 22:02:25 22:06:15 24° 66° (ENE) 22:10:08 436.795
HO-68 28 Apr 22:02:32 22:09:28 54° 76° (ENE) 22:16:26 435.675
CUTE 1.7 + AOD 2 28 Apr 22:03:17 22:07:17 39° 79° (E) 22:11:19 437.475
GOMX 1 28 Apr 22:23:46 22:27:54 66° 259° (W) 22:32:01 467.674
YUBILEINY 28 Apr 22:28:35 22:34:24 21° 84° (E) 22:40:45 435.215
DELFI C3 28 Apr 22:41:55 22:44:27 17° 80° (E) 22:47:09 145.870
CUBEBUG 2 28 Apr 22:44:15 22:47:25 21° 79° (E) 22:50:45 437.445
DOVE 4 28 Apr 22:44:56 22:49:00 56° 259° (W) 22:53:07 437.250
COMPASS 1 28 Apr 22:45:40 22:49:55 79° 259° (W) 22:54:08 437.405
BRITE-PL 28 Apr 22:54:44 22:56:53 13° 260° (W) 22:58:44 437.365/2234.400
O/OREOS (USA 219) 28 Apr 23:02:00 23:05:05 17° 286° (WNW) 23:07:56 437.305
UWE-3 28 Apr 23:03:06 23:06:48 30° 79° (E) 23:10:38 435.000/436.395/437.385
FUNcube-1 28 Apr 23:04:27 23:07:46 23° 79° (E) 23:11:14 145.935
CINEMA 3 28 Apr 23:05:29 23:09:40 74° 259° (W) 23:13:56 145.822/145.860
UKube-1 28 Apr 23:06:33 23:07:54 12° 80° (E) 23:09:34 .
SEEDS 28 Apr 23:17:11 23:20:29 21° 260° (W) 23:23:40 437.485
Oscar 11 28 Apr 23:22:03 23:26:24 80° 258° (WSW) 23:30:44 145.826/435.025
AAUSAT CUBESAT 2 28 Apr 23:26:20 23:29:48 24° 260° (W) 23:33:10 437.432
ZACube-1 28 Apr 23:30:21 23:34:31 58° 79° (E) 23:38:46 437.345
JUGNU 28 Apr 23:32:01 23:36:46 24° 344° (NNW) 23:41:27 437.505
SO-50 28 Apr 23:43:19 23:46:40 18° 247° (WSW) 23:49:46 436.795
Cosmos 2491 28 Apr 23:45:39 23:54:23 82° 274° (W) 00:03:06 435.465 / 435.565
SRMSAT 28 Apr 23:45:52 23:51:39 48° 340° (NNW) 23:57:24 437.500
VELOX 1 28 Apr 23:46:26 23:49:20 18° 79° (E) 23:52:24 145.980
HO-68 28 Apr 23:52:46 23:57:06 16° 257° (WSW) 00:00:55 435.675
RS-15 28 Apr 23:53:55 23:55:14 10° 62° (ENE) 23:58:22 29.354- 29.394
DUCHIFAT 1 28 Apr 23:54:51 23:57:09 15° 100° (E) 23:59:41 145.980
POLYITAN 1 28 Apr 23:57:28 00:00:13 17° 100° (E) 00:03:10 437.675
TIGRISAT 28 Apr 23:57:31 00:01:51 44° 101° (E) 00:06:08 435.000
DX 1 29 Apr 00:01:11 00:05:33 86° 73° (ENE) 00:09:52 434.975-435.025
UNISAT 6 29 Apr 00:03:11 00:07:39 56° 101° (E) 00:12:03 437.425
AISAT 29 Apr 00:04:36 00:08:35 34° 79° (ENE) 00:12:34 437.250
QB50P1 29 Apr 00:13:10 00:16:50 29° 101° (E) 00:20:36 145.935-145.965
DELFI C3 29 Apr 00:16:39 00:19:28 17° 260° (W) 00:22:06 145.870
CUBEBUG 2 29 Apr 00:21:32 00:24:01 15° 261° (W) 00:26:17 437.445
YUBILEINY 29 Apr 00:22:53 00:31:09 47° 266° (W) 00:39:18 435.215
HUMSAT D 29 Apr 00:35:23 00:39:16 38° 259° (W) 00:43:10 437.325/437.525
QB50P2 29 Apr 00:39:51 00:44:09 76° 101° (ESE) 00:48:27 145.880/145.840
UKube-1 29 Apr 00:40:12 00:43:57 28° 259° (W) 00:47:35 .
FUNcube-1 29 Apr 00:41:46 00:44:00 14° 261° (W) 00:46:00 145.935
ANTELSAT 29 Apr 00:45:36 00:49:48 36° 281° (WNW) 00:53:54 437.575/2403.000
50 SAT 29 Apr 00:47:43 00:51:29 44° 259° (WSW) 00:55:17 437.505
VERMONT LUNAR 29 Apr 00:50:51 00:54:10 68° 44° (NE) 00:57:27 437.305
ESTCUBE 1 29 Apr 00:54:21 00:58:54 80° 78° (ENE) 01:03:24 437.505/2401.250
NANOSAT C BR1 29 Apr 00:55:41 00:59:56 65° 281° (WNW) 01:04:11 145.865
Cosmos 2504 29 Apr 00:57:53 01:00:25 13° 83° (E) 01:03:39 435.465 / 435.565
POPSAT HIP 1 29 Apr 01:00:27 01:04:40 55° 281° (WNW) 01:08:53 437.405
BUGSAT 1 29 Apr 01:07:25 01:11:38 70° 282° (WNW) 01:15:53 437.445
CUBEBUG 1 29 Apr 01:17:10 01:21:27 55° 258° (WSW) 01:25:40 437.445
VELOX 1 29 Apr 01:22:33 01:25:47 19° 259° (W) 01:28:49 145.980
JUGNU 29 Apr 01:24:15 01:26:35 12° 352° (N) 01:28:49 437.505
DUCHIFAT 1 29 Apr 01:29:28 01:32:51 22° 281° (W) 01:36:07 145.980
POLYITAN 1 29 Apr 01:32:52 01:36:01 19° 280° (W) 01:39:00 437.675
AIST 1 29 Apr 01:33:32 01:37:48 55° 274° (W) 01:42:00
SRMSAT 29 Apr 01:36:53 01:41:12 20° 345° (NNW) 01:45:25 437.500
TISAT 1 29 Apr 01:41:46 01:45:41 39° 79° (ENE) 01:49:35 437.305
AIST 2 29 Apr 01:49:53 01:51:58 14° 114° (ESE) 01:54:18 435.215
QB50P1 29 Apr 01:51:11 01:52:37 11° 280° (W) 01:53:43 145.935-145.965
PHONESAT 2.4 29 Apr 01:52:14 01:55:45 68° 42° (NE) 01:59:16 2401.200-2431.200
RS-15 29 Apr 01:56:26 02:08:30 82° 69° (ENE) 02:20:51 29.354- 29.394
BEESAT 3 29 Apr 01:59:19 02:03:16 61° 292° (WNW) 02:07:14 437.485
Oscar 19 29 Apr 02:04:11 02:06:03 12° 100° (E) 02:08:20 437.125/150
BEESAT 2 29 Apr 02:05:01 02:09:00 67° 292° (WNW) 02:13:02 435.950
BEESAT 29 Apr 02:16:24 02:17:22 11° 80° (E) 02:18:45 436.000
SWISSCUBE 29 Apr 02:18:19 02:20:30 14° 80° (E) 02:23:01 437.505
SPROUT 29 Apr 02:25:10 02:29:01 32° 259° (W) 02:32:47 437.525
Cosmos 2504 29 Apr 02:46:44 02:53:53 55° 266° (W) 03:00:50 435.465 / 435.565
ITUPSAT 1 29 Apr 03:21:43 03:26:33 87° 78° (ENE) 03:31:22 437.325
AIST 2 29 Apr 03:27:05 03:30:26 23° 293° (WNW) 03:33:42 435.215
SRMSAT 29 Apr 03:29:45 03:31:15 11° 354° (N) 03:32:41 437.500
Gurwin Techsat 1B 29 Apr 03:33:16 03:37:49 30° 101° (ESE) 03:42:29 435.225
Oscar 19 29 Apr 03:40:31 03:45:19 39° 282° (WNW) 03:50:06 437.125/150
BEESAT 29 Apr 03:50:42 03:55:09 37° 259° (WSW) 03:59:32 436.000
SWISSCUBE 29 Apr 03:54:01 03:58:16 31° 258° (WSW) 04:02:25 437.505
RS-15 29 Apr 04:14:17 04:21:34 16° 243° (WSW) 04:27:33 29.354- 29.394
ITAMSAT 1 29 Apr 04:22:26 04:27:31 56° 282° (WNW) 04:32:37 435.822/435.867
KKS-1 29 Apr 04:26:59 04:31:25 79° 79° (E) 04:35:50 437.445
AO-7 29 Apr 04:29:25 04:34:45 20° 104° (ESE) 04:40:38 29.400- 29.500
CUSAT 1 29 Apr 04:33:01 04:38:24 20° 80° (E) 04:43:55 437.405
GONETS M04 29 Apr 04:46:06 04:54:15 45° 86° (E) 05:02:31
JUGNU 29 Apr 05:03:33 05:06:48 15° 12° (NNE) 05:10:07 437.505
STARS 29 Apr 05:13:26 05:17:34 40° 259° (WSW) 05:21:39 437.465
Gurwin Techsat 1B 29 Apr 05:14:10 05:17:41 17° 281° (W) 05:20:56 435.225
SRMSAT 29 Apr 05:21:02 05:21:35 10° 4° (N) 05:22:10 437.500
MOZHAYETS 4 29 Apr 05:21:12 05:23:05 13° 80° (E) 05:25:17
HORYU 2 29 Apr 05:25:25 05:29:51 75° 282° (WNW) 05:34:17 437.375
JAS-2 29 Apr 05:30:30 05:35:46 59° 101° (ESE) 05:40:52 435.910
DANDE 29 Apr 05:32:30 05:40:50 57° 84° (E) 05:48:35 436.750
CUSAT 1 29 Apr 06:13:16 06:21:18 52° 266° (W) 06:28:22 437.405
AO-7 29 Apr 06:19:21 06:27:26 54° 285° (WNW) 06:35:30 29.400- 29.500
GONETS M04 29 Apr 06:44:19 06:51:00 23° 264° (W) 06:57:11
PCSat 29 Apr 06:47:38 06:51:36 22° 111° (ESE) 06:55:46 145.827
JUGNU 29 Apr 06:51:09 06:56:23 32° 18° (NNE) 07:01:37 437.505
MOZHAYETS 4 29 Apr 06:56:06 07:00:13 30° 259° (W) 07:04:14
Cosmos 2499 29 Apr 06:57:25 07:04:18 53° 86° (E) 07:11:09 435.465 / 435.565
CUBESAT XI-V 29 Apr 07:07:28 07:09:34 13° 80° (E) 07:11:57 437.345
AUBIESAT-1 29 Apr 07:07:37 07:09:56 14° 75° (ENE) 07:12:34 437.475
SRMSAT 29 Apr 07:07:57 07:11:42 17° 14° (NNE) 07:15:33 437.500
DANDE 29 Apr 07:17:53 07:23:54 20° 265° (W) 07:29:03 436.750
CUTE-I 29 Apr 07:38:19 07:43:25 48° 102° (ESE) 07:48:35 437.470
PRISM 29 Apr 07:43:17 07:46:19 20° 79° (E) 07:49:29 437.425
Cubesat XI-IV 29 Apr 07:48:53 07:54:09 66° 102° (ESE) 07:59:29 437.490
M-CUBED/EXP-1 PRIME 29 Apr 08:00:59 08:05:33 89° 227° (SW) 08:10:21 437.505
PCSat 29 Apr 08:30:30 08:34:54 25° 291° (WNW) 08:39:11 145.827
STRAND 1 29 Apr 08:38:07 08:43:15 84° 79° (E) 08:48:22 437.568
JUGNU 29 Apr 08:39:37 08:45:31 88° 16° (NNE) 08:51:25 437.505
AUBIESAT-1 29 Apr 08:40:29 08:44:32 31° 256° (WSW) 08:48:39 437.475
CUBESAT XI-V 29 Apr 08:42:51 08:46:55 29° 259° (W) 08:50:52 437.345
Cosmos 2499 29 Apr 08:54:12 08:57:25 13° 264° (W) 08:59:54 435.465 / 435.565
SRMSAT 29 Apr 08:55:49 09:01:19 40° 20° (NNE) 09:06:51 437.500
GOMX 1 29 Apr 09:10:40 09:13:38 16° 100° (E) 09:16:57 467.674
PRISM 29 Apr 09:19:05 09:21:40 15° 259° (W) 09:24:00 437.425
CUTE-I 29 Apr 09:22:21 09:23:28 10° 280° (W) 09:24:04 437.470
ISS 29 Apr 09:27:18 09:30:31 72° 305° (NW) 09:33:43 145.825
DOVE 4 29 Apr 09:29:35 09:32:27 15° 100° (E) 09:35:38 437.250
O/OREOS (USA 219) 29 Apr 09:32:43 09:36:44 34° 75° (ENE) 09:40:49 437.305
BRITE-PL 29 Apr 09:39:25 09:44:56 61° 101° (E) 09:50:34 437.365/2234.400
SEEDS 29 Apr 09:47:59 09:50:44 18° 100° (E) 09:53:38 437.485
HO-68 29 Apr 09:54:19 10:01:00 45° 103° (ESE) 10:07:46 435.675
AAUSAT CUBESAT 2 29 Apr 09:56:40 09:58:48 14° 100° (E) 10:01:11 437.432
CANX-2 29 Apr 10:01:32 10:05:30 42° 101° (E) 10:09:31 2200.000
CUTE 1.7 + AOD 2 29 Apr 10:10:00 10:14:04 49° 101° (E) 10:18:10 437.475
SO-50 29 Apr 10:14:47 10:18:55 41° 112° (ESE) 10:23:12 436.795
Cosmos 2491 29 Apr 10:25:00 10:31:26 24° 85° (E) 10:38:19 435.465 / 435.565
JUGNU 29 Apr 10:29:21 10:34:38 34° 199° (SSW) 10:39:52 437.505
DELFI C3 29 Apr 10:42:44 10:45:13 17° 100° (E) 10:47:53 145.870
SRMSAT 29 Apr 10:44:40 10:50:33 74° 202° (SSW) 10:56:30 437.500
GOMX 1 29 Apr 10:46:34 10:51:37 37° 281° (W) 10:56:37 467.674
COMPASS 1 29 Apr 10:50:47 10:54:54 66° 281° (W) 10:59:00 437.405
CUBEBUG 2 29 Apr 10:56:17 11:00:31 35° 100° (E) 11:04:44 437.445
YUBILEINY 29 Apr 11:00:00 11:08:09 44° 94° (E) 11:16:27 435.215
DOVE 4 29 Apr 11:05:16 11:10:05 35° 281° (W) 11:14:48 437.250
FUNcube-1 29 Apr 11:14:01 11:18:02 33° 100° (E) 11:22:03 145.935
UWE-3 29 Apr 11:14:15 11:18:41 48° 101° (E) 11:23:01 435.000/436.395/437.385
UKube-1 29 Apr 11:14:24 11:16:55 16° 101° (E) 11:19:41 .
CINEMA 3 29 Apr 11:21:52 11:26:39 45° 281° (WNW) 11:31:18 145.822/145.860
SEEDS 29 Apr 11:23:35 11:26:25 17° 280° (W) 11:29:04 437.485
ANTELSAT 29 Apr 11:24:07 11:26:34 15° 79° (E) 11:29:17 437.575/2403.000
Oscar 11 29 Apr 11:31:02 11:35:16 58° 281° (WNW) 11:39:31 145.826/435.025
AAUSAT CUBESAT 2 29 Apr 11:31:10 11:34:19 20° 280° (W) 11:37:20 437.432
ZACube-1 29 Apr 11:40:31 11:45:02 85° 101° (E) 11:49:27 437.345
HO-68 29 Apr 11:43:35 11:48:37 20° 283° (WNW) 11:53:15 435.675
VELOX 1 29 Apr 11:57:44 12:01:25 26° 101° (E) 12:05:14 145.980
DUCHIFAT 1 29 Apr 12:00:47 12:03:29 17° 80° (E) 12:06:22 145.980
POLYITAN 1 29 Apr 12:04:09 12:07:16 21° 79° (E) 12:10:30 437.675
TIGRISAT 29 Apr 12:10:35 12:14:57 69° 79° (ENE) 12:19:24 435.000
DX 1 29 Apr 12:10:58 12:15:19 68° 282° (WNW) 12:19:42 434.975-435.025
AISAT 29 Apr 12:16:31 12:20:53 52° 102° (ESE) 12:25:16 437.250
UNISAT 6 29 Apr 12:16:35 12:21:00 87° 79° (ENE) 12:25:30 437.425
DELFI C3 29 Apr 12:17:37 12:20:15 16° 280° (W) 12:22:43 145.870
QB50P1 29 Apr 12:19:45 12:23:34 35° 79° (E) 12:27:25 145.935-145.965
Cosmos 2491 29 Apr 12:19:57 12:28:12 43° 266° (W) 12:36:19 435.465 / 435.565
JUGNU 29 Apr 12:20:48 12:24:10 15° 192° (SSW) 12:27:26 437.505
VERMONT LUNAR 29 Apr 12:24:54 12:28:03 45° 138° (SE) 12:31:13 437.305
SRMSAT 29 Apr 12:34:53 12:39:55 28° 198° (SSW) 12:44:57 437.500
CUBEBUG 2 29 Apr 12:35:41 12:37:05 11° 280° (W) 12:38:05 437.445
HUMSAT D 29 Apr 12:41:12 12:45:01 32° 281° (W) 12:48:45 437.325/437.525
50 SAT 29 Apr 12:46:04 12:49:54 47° 281° (W) 12:53:42 437.505
QB50P2 29 Apr 12:46:50 12:51:04 85° 257° (WSW) 12:55:16 145.880/145.840
UKube-1 29 Apr 12:49:36 12:52:56 21° 281° (W) 12:56:11 .
FUNcube-1 29 Apr 12:53:24 12:54:15 10° 280° (W) 12:54:43 145.935
YUBILEINY 29 Apr 12:58:03 13:04:54 24° 276° (W) 13:11:14 435.215
SPROUT 29 Apr 12:59:20 13:01:14 13° 100° (E) 13:03:25 437.525
ANTELSAT 29 Apr 12:59:40 13:03:14 23° 260° (W) 13:06:44 437.575/2403.000
NANOSAT C BR1 29 Apr 13:02:22 13:06:27 51° 258° (WSW) 13:10:31 145.865
Cosmos 2504 29 Apr 13:05:18 13:11:33 23° 95° (E) 13:18:22 435.465 / 435.565
POPSAT HIP 1 29 Apr 13:07:27 13:11:26 42° 259° (WSW) 13:15:24 437.405
ESTCUBE 1 29 Apr 13:08:44 13:13:10 64° 281° (WNW) 13:17:38 437.505/2401.250
BUGSAT 1 29 Apr 13:11:28 13:15:29 59° 259° (W) 13:19:26 437.445
CUBEBUG 1 29 Apr 13:27:40 13:31:47 39° 281° (WNW) 13:35:55 437.445
PHONESAT 2.4 29 Apr 13:31:49 13:35:16 54° 137° (SE) 13:38:43 2401.200-2431.200
VELOX 1 29 Apr 13:35:34 13:37:53 13° 280° (W) 13:39:55 145.980
DUCHIFAT 1 29 Apr 13:36:19 13:39:12 17° 260° (W) 13:41:53 145.980
RS-15 29 Apr 13:40:04 13:51:04 70° 112° (ESE) 14:01:52 29.354- 29.394
AIST 1 29 Apr 13:40:28 13:44:29 38° 265° (W) 13:48:30
POLYITAN 1 29 Apr 13:40:36 13:43:04 15° 260° (W) 13:45:18 437.675
TISAT 1 29 Apr 13:47:32 13:51:39 49° 101° (E) 13:55:49 437.305
AIST 2 29 Apr 13:48:23 13:51:00 17° 66° (ENE) 13:53:46 435.215
BEESAT 3 29 Apr 13:54:09 13:58:03 54° 248° (WSW) 14:01:53 437.485
BEESAT 2 29 Apr 14:00:35 14:04:31 58° 248° (WSW) 14:08:24 435.950
SRMSAT 29 Apr 14:26:50 14:29:46 14° 190° (S) 14:32:36 437.500
SPROUT 29 Apr 14:33:36 14:37:13 25° 280° (W) 14:40:44 437.525
Oscar 19 29 Apr 14:35:26 14:39:55 32° 79° (ENE) 14:44:30 437.125/150
BEESAT 29 Apr 14:36:01 14:39:30 21° 101° (E) 14:43:11 436.000
SWISSCUBE 29 Apr 14:38:50 14:42:43 26° 101° (ESE) 14:46:44 437.505
Cosmos 2504 29 Apr 14:56:36 15:04:50 46° 275° (W) 15:13:07 435.465 / 435.565
ITAMSAT 1 29 Apr 15:19:19 15:23:21 24° 79° (E) 15:27:32 435.822/435.867
AIST 2 29 Apr 15:26:38 15:29:28 17° 247° (WSW) 15:32:07 435.215
ITUPSAT 1 29 Apr 15:44:24 15:48:58 46° 281° (WNW) 15:53:31 437.325
STARS 29 Apr 15:50:55 15:52:33 12° 100° (E) 15:54:31 437.465
RS-15 29 Apr 15:56:33 16:03:35 17° 296° (WNW) 16:09:35 29.354- 29.394
JUGNU 29 Apr 16:02:25 16:04:20 12° 172° (S) 16:06:18 437.505
Gurwin Techsat 1B 29 Apr 16:11:07 16:16:27 88° 78° (ENE) 16:21:46 435.225
BEESAT 29 Apr 16:13:47 16:17:15 19° 281° (W) 16:20:32 436.000
Oscar 19 29 Apr 16:16:10 16:19:11 15° 259° (W) 16:21:53 437.125/150
SWISSCUBE 29 Apr 16:17:31 16:20:28 16° 280° (W) 16:23:12 437.505
KKS-1 29 Apr 16:39:40 16:44:07 68° 282° (WNW) 16:48:36 437.445
AO-7 29 Apr 16:54:15 17:01:20 33° 75° (ENE) 17:08:37 29.400- 29.500
ITAMSAT 1 29 Apr 16:58:48 17:02:45 21° 259° (WSW) 17:06:28 435.822/435.867
JAS-2 29 Apr 17:00:50 17:07:46 40° 78° (ENE) 17:15:01 435.910
CUSAT 1 29 Apr 17:17:51 17:20:02 21° 93° (E) 17:22:36 437.405
GONETS M04 29 Apr 17:19:07 17:27:52 85° 94° (E) 17:36:39
STARS 29 Apr 17:25:02 17:28:55 28° 281° (W) 17:32:41 437.465
MOZHAYETS 4 29 Apr 17:36:41 17:40:01 21° 100° (E) 17:43:31
HORYU 2 29 Apr 17:38:25 17:42:45 48° 258° (WSW) 17:47:04 437.375
JUGNU 29 Apr 17:49:38 17:54:08 22° 164° (SSE) 17:58:44 437.505
SRMSAT 29 Apr 18:07:32 18:10:21 13° 170° (S) 18:13:15 437.500
DANDE 29 Apr 18:24:16 18:26:34 25° 279° (W) 18:29:06 436.750
JAS-2 29 Apr 18:46:21 18:52:39 27° 259° (W) 18:58:50 435.910
AO-7 29 Apr 18:46:43 18:54:00 33° 255° (WSW) 19:01:01 29.400- 29.500
Cubesat XI-IV 29 Apr 18:52:00 18:53:53 12° 80° (E) 18:56:12 437.490
Cosmos 2499 29 Apr 19:05:03 19:13:46 73° 94° (E) 19:22:36 435.465 / 435.565
MOZHAYETS 4 29 Apr 19:14:00 19:17:08 18° 280° (W) 19:20:04
PCSat 29 Apr 19:22:34 19:27:54 68° 70° (ENE) 19:33:17 145.827
CUBESAT XI-V 29 Apr 19:24:25 19:28:02 24° 101° (E) 19:31:50 437.345
STRAND 1 29 Apr 19:34:48 19:36:43 12° 101° (E) 19:39:02 437.568
JUGNU 29 Apr 19:37:37 19:43:26 56° 159° (SSE) 19:49:18 437.505
PRISM 29 Apr 19:46:51 19:50:00 22° 101° (E) 19:53:17 437.425
SRMSAT 29 Apr 19:55:12 20:00:13 28° 163° (SSE) 20:05:17 437.500
M-CUBED/EXP-1 PRIME 29 Apr 20:04:50 20:08:21 83° 287° (WNW) 20:11:43 437.505
CUTE-I 29 Apr 20:17:45 20:23:01 57° 258° (WSW) 20:28:13 437.470
Cubesat XI-IV 29 Apr 20:28:53 20:33:56 42° 258° (WSW) 20:38:54 437.490
AUBIESAT-1 29 Apr 20:43:59 20:46:42 21° 285° (WNW) 20:49:15 437.475
ISS 29 Apr 21:00:15 21:03:25 60° 54° (NE) 21:06:37 145.825
CUBESAT XI-V 29 Apr 21:02:21 21:05:22 17° 280° (W) 21:08:10 437.345
Cosmos 2499 29 Apr 21:02:54 21:07:04 13° 277° (W) 21:10:16 435.465 / 435.565
